{"data":{"norad_id":64297,"intl_designator":"2025-123G","name":"STARLINK-34369","alt_names":[],"object_type":"PAYLOAD","status":"ACTIVE","operator":null,"country":"US","launch_date":"2025-06-08","launch_site_code":"AFWTR","launch_vehicle":null,"mission":null,"orbit_class":"UNKNOWN","rcs_meters":null,"size_class":null,"mass_kg":null,"dimensions":null,"purposes":["comms"],"wikipedia_slug":null,"has_3d_model":false,"image_url":null,"decayed_at":null,"tle_current":{"epoch":"2026-09-20T16:32:09.269952Z","epoch_age_seconds":122068,"freshness":"FRESH","line1":"1 64297U 25123G   26263.68899618  .00010586  00000+0  37216-3 0  9996","line2":"2 64297  70.0010  60.5575 0003350 272.2865  87.7926 15.29581986 70885","mean_motion":15.29581986,"eccentricity":0.000335,"inclination_deg":70.001,"raan_deg":60.5575,"arg_perigee_deg":272.2865,"mean_anomaly_deg":87.7926,"bstar":0.00037216,"rev_number":7088,"period_min":94.143368134567,"perigee_km":474.76447778496,"apogee_km":479.35746042426,"semimajor_km":6855.1979691046,"source":"CELESTRAK","updated_at":"2026-09-21T09:00:35.306100Z"}}}